Hourly Data Report for December 18, 2020

SHEARWATER RCS
NOVA SCOTIA
Current Station Operator: ECCC - MSC

44°37'47.000" N
63°30'48.000" W
24.00 m
8205092
71264
AAW

Download Data

Hourly Data (December 2020)
Hourly Data Report for December 18, 2020
TIME
LST
Temp Definition
°C
Dew Point Definition
°C
Rel Hum Definition
%
Precip. Amount Definition
mm

Wind Dir Definition
10's deg

Wind Spd Definition
km/h
Visibility Definition
km
Stn Press Definition
kPa
Hmdx Definition


Wind Chill Definition


Weather Definition


00:00 -2.7 -3.2 96 2.2 2 19   101.03   -8 LegendNANA
01:00 -2.5 -3.0 96 2.0 36 17   100.99   -8 LegendNANA
02:00 -2.3 -3.0 95 0.5 35 17   101.00   -8 LegendNANA
03:00 -2.1 -2.9 94 0.0 35 18   101.04   -8 LegendNANA
04:00 -1.7 -2.5 94 0.2 35 21   101.05   -8 LegendNANA
05:00 -1.6 -2.4 94 0.0 35 19   101.07   -7 LegendNANA
06:00 -1.1 -2.2 93 0.0 35 24   101.08   -7 LegendNANA
07:00 -0.8 -2.0 92 0.0 36 20   101.10   -6 LegendNANA
08:00 -0.5 -1.7 91 0.0 35 21   101.14   -6 LegendNANA
09:00 0.0 -1.3 91 0.0 35 22   101.12   -6 LegendNANA
10:00 0.7 -0.8 90 0.2 35 21   101.14     LegendNANA
11:00 1.2 -0.5 88 0.0 35 25   101.14     LegendNANA
12:00 1.5 -0.3 88 0.0 35 22   101.08     LegendNANA
13:00 1.6 -0.1 88 0.0 35 22   101.06     LegendNANA
14:00 1.5 -0.1 89 0.0 35 21   101.10     LegendNANA
15:00 1.4 -0.2 89 0.0 35 22   101.18     LegendNANA
16:00 1.2 -0.8 87 0.0 35 18   101.25     LegendNANA
17:00 1.1 -1.5 82 0.0 35 19   101.29     LegendNANA
18:00 1.0 -2.0 81 0.0 36 23   101.31     LegendNANA
19:00 0.7 -2.2 81 0.0 35 23   101.34     LegendNANA
20:00 0.4 -2.5 81 0.0 35 25   101.39     LegendNANA
21:00 0.2 -3.0 79 0.0 35 23   101.43     LegendNANA
22:00 0.1 -3.0 80 0.0 35 22   101.46     LegendNANA
23:00 -0.1 -3.3 79 0.0 35 23   101.45   -6 LegendNANA

Notes on Data Quality.

Legend

  • E = Estimated
  • M = Missing
  • NA = Not Available*
  • [empty] = Indicates an unobserved value
Date modified: